North Pole, Alaska, United States (99705)
Lat: 64.75N, Lon: 147.35W
Wx Zone: AKZ222
Local Info
Past Weather Observations for Friday, December 12, 2014

NOTE: This archive is for the closest National Weather Service station to North Pole. Information may differ from the station used for current weather conditions.

Click here for Long-term Archive

Time Weather Temperature Dewpoint Humidity Pressure Winds Precip Visibility
23:56
Partly Cloudy
9°F / -13°C 3°F / -16°C 78% 29.65 in
(1004 mb)
Calm - 10SM
22:56
Overcast
10°F / -12°C 5°F / -15°C 79% 29.65 in
(1004 mb)
Calm - 10SM
21:56
Overcast
10°F / -12°C 5°F / -15°C 79% 29.65 in
(1004 mb)
Calm - 10SM
16:55
Overcast
Light Snow
10°F / -12°C 3°F / -16°C 72% 29.59 in
(1002 mb)
Calm - 10SM
15:55
Mostly Cloudy
Light Snow
9°F / -13°C 3°F / -16°C 78% 29.59 in
(1002 mb)
SW 1.2 mph
(SW 2 kph)
- 10SM
14:55
Mostly Cloudy
Light Snow
9°F / -13°C 3°F / -16°C 78% 29.56 in
(1001 mb)
S 2.3 mph
(S 4 kph)
- 10SM
13:55
Mostly Cloudy
Light Snow
9°F / -13°C 3°F / -16°C 78% 29.56 in
(1001 mb)
SW 2.3 mph
(SW 4 kph)
- 10SM
12:55
Mostly Cloudy
Snow Showers
9°F / -13°C 3°F / -16°C 78% 29.53 in
(1000 mb)
Calm - 7SM
11:55
Overcast
Light Snow
9°F / -13°C 3°F / -16°C 78% 29.53 in
(1000 mb)
Calm - 10SM
10:55
Overcast
Light Snow
9°F / -13°C 3°F / -16°C 78% 29.5 in
(999 mb)
SSW 3.5 mph
(SSW 6 kph)
- 10SM
09:55
Overcast
9°F / -13°C 3°F / -16°C 78% 29.5 in
(999 mb)
Calm - 13SM
08:55
Overcast
Light Snow
9°F / -13°C 3°F / -16°C 78% 29.47 in
(998 mb)
Calm - 10SM
07:55
Overcast
Light Snow
9°F / -13°C 3°F / -16°C 78% 29.47 in
(998 mb)
Calm - 10SM
06:55
Overcast
Light Snow
9°F / -13°C 3°F / -16°C 78% 29.44 in
(997 mb)
Calm - 10SM
06:20
Overcast
9°F / -13°C 3°F / -16°C 78% 29.44 in
(997 mb)
Calm - 10SM
05:56
Overcast
9°F / -13°C 3°F / -16°C 78% 29.44 in
(997 mb)
SW 3.5 mph
(SW 6 kph)
0.00 in
(0.00 mm)
10SM
05:54
Overcast
9°F / -13°C 3°F / -16°C 78% 29.44 in
(997 mb)
SW 3.5 mph
(SW 6 kph)
0.00 in
(0.00 mm)
10SM
05:17
Overcast
Light Snow
9°F / -13°C 3°F / -16°C 78% 29.44 in
(997 mb)
SW 4.6 mph
(SW 7 kph)
0.00 in
(0.00 mm)
4SM
05:08
Overcast
Light Snow
9°F / -13°C 3°F / -16°C 78% 29.44 in
(997 mb)
SSE 3.5 mph
(SSE 6 kph)
0.00 in
(0.00 mm)
3SM
04:56
Overcast
Light Snow
9°F / -13°C 3°F / -16°C 78% 29.44 in
(997 mb)
SW 3.5 mph
(SW 6 kph)
0.00 in
(0.00 mm)
1 1/4SM
04:33
Overcast
Light Snow
9°F / -13°C 3°F / -16°C 78% 29.42 in
(996 mb)
SW 3.5 mph
(SW 6 kph)
0.00 in
(0.00 mm)
1 3/4SM
04:14
Overcast
Light Snow
9°F / -13°C 3°F / -16°C 78% 29.42 in
(996 mb)
SW 4.6 mph
(SW 7 kph)
0.00 in
(0.00 mm)
5SM
03:56
Overcast
9°F / -13°C 3°F / -16°C 78% 29.42 in
(996 mb)
S 3.5 mph
(S 6 kph)
- 10SM
03:54
Overcast
9°F / -13°C 3°F / -16°C 78% 29.42 in
(996 mb)
S 3.5 mph
(S 6 kph)
- 10SM
02:56
Overcast
10°F / -12°C 3°F / -16°C 72% 29.42 in
(996 mb)
SSW 5.8 mph
(SSW 9 kph)
- 10SM
01:56
Overcast
10°F / -12°C 7°F / -14°C 85% 29.39 in
(995 mb)
Calm - 10SM
00:56
Overcast
12°F / -11°C 7°F / -14°C 79% 29.39 in
(995 mb)
Calm - 10SM
00:53
Overcast
12°F / -11°C 7°F / -14°C 79% 29.39 in
(995 mb)
Calm - 10SM
Time Weather Temperature Dewpoint Humidity Pressure Winds Precip Visibility


Weather for websites

WeatherForYou.com, LLC is not responsible for any damages or problems caused by this service. Current weather conditions are obtained from the closest station including government and personal stations which may have varying degrees of accuracy. Weather forecasts are derived from the NOAA NDFD. Like all things, this site belongs to Jesus Christ... He just trusts me to maintain it. If you have any questions or comments email webmaster@weatherforyou.com

Copyright © 2014, WeatherForYou.com LLC. All rights reserved.